TimeCDT,TemperatureF,Dew PointF,Humidity,Sea Level PressureIn,VisibilityMPH,Wind Direction,Wind SpeedMPH,Gust SpeedMPH,PrecipitationIn,Events,Conditions,WindDirDegrees,DateUTC
12:56 AM,62.1,57.9,86,30.16,10.0,SSE,6.9,-,N/A,,Clear,160,2013-08-17 05:56:00
1:56 AM,63.0,57.9,84,30.16,10.0,South,5.8,-,N/A,,Overcast,170,2013-08-17 06:56:00
2:56 AM,63.0,59.0,87,30.15,10.0,SSE,8.1,-,N/A,,Overcast,160,2013-08-17 07:56:00
3:56 AM,62.1,57.9,86,30.15,10.0,SSE,8.1,-,N/A,,Mostly Cloudy,160,2013-08-17 08:56:00
4:56 AM,61.0,57.9,90,30.15,10.0,SSE,6.9,-,N/A,,Scattered Clouds,160,2013-08-17 09:56:00
5:56 AM,62.1,57.9,86,30.14,10.0,SSE,9.2,-,N/A,,Overcast,150,2013-08-17 10:56:00
6:56 AM,60.1,57.9,93,30.15,10.0,SSE,8.1,-,N/A,,Clear,150,2013-08-17 11:56:00
7:56 AM,63.0,57.9,84,30.15,10.0,SSE,10.4,-,N/A,,Clear,160,2013-08-17 12:56:00
8:56 AM,66.9,59.0,76,30.16,10.0,South,13.8,-,N/A,,Scattered Clouds,180,2013-08-17 13:56:00
9:56 AM,70.0,60.1,71,30.16,10.0,South,12.7,-,N/A,,Clear,190,2013-08-17 14:56:00
10:56 AM,72.0,60.1,66,30.15,10.0,South,15.0,-,N/A,,Scattered Clouds,180,2013-08-17 15:56:00
11:56 AM,72.0,60.1,66,30.14,10.0,South,13.8,21.9,N/A,,Scattered Clouds,180,2013-08-17 16:56:00
12:56 PM,73.9,61.0,64,30.13,10.0,SSE,17.3,23.0,N/A,,Partly Cloudy,160,2013-08-17 17:56:00
1:33 PM,75.2,62.6,65,30.15,10.0,SSE,17.3,23.0,N/A,,Mostly Cloudy,160,2013-08-17 18:33:00
1:41 PM,75.2,62.6,65,30.15,10.0,SSE,15.0,-,N/A,,Scattered Clouds,150,2013-08-17 18:41:00
1:56 PM,75.9,63.0,64,30.12,10.0,SSE,17.3,25.3,N/A,,Scattered Clouds,160,2013-08-17 18:56:00
2:39 PM,75.2,62.6,65,30.13,10.0,South,15.0,-,N/A,,Mostly Cloudy,170,2013-08-17 19:39:00
2:47 PM,77.0,62.6,61,30.13,10.0,SSE,13.8,-,N/A,,Scattered Clouds,160,2013-08-17 19:47:00
2:56 PM,77.0,63.0,62,30.11,10.0,SSE,16.1,20.7,N/A,,Scattered Clouds,160,2013-08-17 19:56:00
3:56 PM,78.1,62.1,58,30.09,10.0,South,17.3,21.9,N/A,,Partly Cloudy,170,2013-08-17 20:56:00
4:56 PM,78.1,61.0,56,30.09,10.0,South,13.8,21.9,N/A,,Partly Cloudy,170,2013-08-17 21:56:00
5:56 PM,75.9,60.1,58,30.09,10.0,SSE,15.0,23.0,N/A,,Partly Cloudy,150,2013-08-17 22:56:00
6:56 PM,75.0,60.1,60,30.09,10.0,SSE,8.1,-,N/A,,Clear,150,2013-08-17 23:56:00
7:56 PM,72.0,60.1,66,30.09,10.0,SSE,6.9,-,N/A,,Clear,150,2013-08-18 00:56:00
8:56 PM,66.9,60.1,79,30.09,10.0,SE,8.1,-,N/A,,Clear,130,2013-08-18 01:56:00
9:56 PM,66.0,59.0,78,30.09,10.0,SSE,10.4,-,N/A,,Clear,150,2013-08-18 02:56:00
10:56 PM,64.9,57.0,75,30.10,10.0,SSE,10.4,-,N/A,,Clear,160,2013-08-18 03:56:00
11:56 PM,64.0,57.0,78,30.11,10.0,SSE,11.5,-,N/A,,Clear,160,2013-08-18 04:56:00